Simultaneous Nadir Overpasses (SNOs) Predictions

Prediction of SNOs between METOP-B and TERRA Satellite Orbit:

Table of predicted SNOs for the next 14.0 days since TLE Epoch: 11/14/2025
Index Date (METOP-B) Time (METOP-B) Lat,Lon (METOP-B) SZA (METOP-B ) Date (TERRA) Time (TERRA) Lat,Lon (TERRA) SZA (TERRA ) Distance(km) Time Diff (sec)
1 11/14/2025 20:49:19 72.50,-148.43 91.23 11/14/2025 20:48:15 72.50,-148.46 91.25 1.10 64
2 11/17/2025 08:48:39 -69.94,-152.49 90.32 11/17/2025 08:48:57 -69.95,-152.48 90.32 0.72 18
3 11/17/2025 09:38:37 72.15, 18.59 91.57 11/17/2025 09:37:35 72.15, 18.57 91.59 0.71 62
4 11/19/2025 21:37:53 -69.78, 14.97 89.85 11/19/2025 21:38:13 -69.77, 14.93 89.86 1.69 20
5 11/19/2025 22:27:59 71.58,-174.77 91.68 11/19/2025 22:26:58 71.59,-174.72 91.71 2.08 61
6 11/22/2025 10:27:11 -69.39,-177.90 89.60 11/22/2025 10:27:32 -69.38,-177.94 89.62 1.74 21
7 11/22/2025 11:17:15 71.31, -7.56 92.01 11/22/2025 11:16:15 71.31, -7.52 92.04 1.53 60
8 11/24/2025 23:16:34 -68.66, -11.19 89.67 11/24/2025 23:16:55 -68.66, -11.18 89.68 0.53 21
9 11/25/2025 00:06:23 71.38, 160.27 92.60 11/25/2025 00:05:24 71.37, 160.21 92.61 2.29 59
10 11/27/2025 12:05:49 -68.40, 156.17 89.39 11/27/2025 12:06:10 -68.40, 156.16 89.40 0.43 21



Historial Predications of SNOs between METOP-B and TERRA
